Weather in Zarubino

Russia / Perm Krai     57°34′43″N   56°57′28″E
temp.,
°C
wind,
m/s
gust,
m/s
humid.,
%
clouds,
%
prec.,
mm/h
press.,
hPa
HPBL,
m
25 february, thu
thu2523:00−26nnw469765 0.0 103085
02:00−27n23980 0.0 103019
05:00−28nw22970 0.0 103119
08:00−29wnw12980 0.0 103119
11:00−24wsw12930 0.0 1031165
14:00−20ssw238744 0.0 1029308
17:00−18s129050 0.0 102962
20:00−23ssw349665 0.0 102940
26 february, fri
fri2623:00−26ssw349535 0.0 102942
02:00−28sse349537 0.0 102837
05:00−28sse349266 0.0 102857
08:00−28sse349165 0.0 102641
11:00−23sse478735 0.0 1025290
14:00−18sse478946 0.0 1023469
17:00−15sse479173 0.0 1021598
20:00−18se4894100 0.1 1019151
27 february, sat
sat2723:00−19se489399 0.1 1018137
02:00−20se5118988 0.0 1014198
05:00−19se6139070 0.0 1011289
08:00−18ese71388100 0.0 1007335
11:00−17ese71195100 0.3 1005404
14:00−15ese71195100 0.9 1004511
17:00−14e71194100 1.8 1004511
20:00−15e71394100 0.7 1003455
28 february, sun
sun2823:00−15e71294100 1.3 1003445
02:00−15e71294100 0.4 1003418
05:00−15ene71194100 0.8 1003403
08:00−16ene71193100 0.3 1004397
11:00−15ene7119399 0.4 1005432
14:00−13ene6990100 0.2 1006488
17:00−13ene6992100 0.3 1008484
20:00−16ene6109499 0.2 1010383
1 march, mon
mon123:00−18ene5109393 0.3 1012377
02:00−18ene599586 0.1 1014380
05:00−19ne489691 0.3 1016321
08:00−21ne479686 0.1 1017216
11:00−19ne469278 0.1 1019292
14:00−16nne348634 0.0 1018385
17:00−14n248863 0.0 1018349
20:00−19nw119831 0.0 101820